User: anonymous   Login
Location: Unspecified
(0.0000°N, 0.0000°E)
Time: 01:49:57
(UTC+00:00)
Language:

IGS 8A - Orbit

View from above orbital plane
View from above orbital plane
View from above satellite
View from above satellite

Ground track
Ground track

The orbit data is extracted from the following two-line orbital elements,

1 39061U 13002A   17178.05484619 0.00000000  00000-0  00000-0 0    09
2 39061  97.4989 298.1849 0003000  55.3909 304.6090 15.17612970    03
Epoch (UTC): 27 June 2017 01:18:58
Eccentricity: 0.0003000
inclination: 97.4989°
perigee height: 511 km
apogee height: 515 km
right ascension of ascending node: 298.1849°
argument of perigee: 55.3909°
revolutions per day: 15.17612970
mean anomaly at epoch: 304.6090°
orbit number at epoch: 0

The dashed part of the orbit path shows where the satellite is in the earth's shadow,  

DLR